Погода в Новоуколове

Россия / Белгородская область     51°01′00″N   38°25′23″E
темп.,
°C
ветер,
м/с
пор.,
м/с
влажн.,
%
обл.,
%
осадки,
мм/ч
давл.,
гПа
погр.,
м
23 апреля, пт
пт2300:00+11ю3673100 0.0 1020127
03:00+9ю347982 0.0 102071
06:00+8ююз348356 0.1 102071
09:00+14ю46605 0.1 1019592
12:00+16ююз674620 0.3 10182128
15:00+16ююз5746100 0.3 10162262
18:00+14ююз5106199 0.1 1015561
21:00+10ю35745 0.1 101485
24 апреля, сб
сб2400:00+9ююз51084100 0.2 1013333
03:00+9ююз61284100 1.6 10111016
06:00+6зсз81090100 1.9 1011793
09:00+5з6991100 2.7 1012727
12:00+9з795983 0.8 10121679
15:00+10з71147100 1.1 10122662
18:00+7з712599 0.2 10141443
21:00+4з712655 0.2 1016784
25 апреля, вс
вс2500:00+3з612735 0.0 1016687
03:00+2з613710 0.0 1018520
06:00+1зюз512771 0.0 1019440
09:00+6з711530 0.0 10191415
12:00+9зюз7940100 0.0 10192621
15:00+10зюз7934100 0.0 10182680
18:00+9зюз694871 0.0 10171630
21:00+6ююз411676 0.0 1017253
26 апреля, пн
пн2600:00+5зюз4869100 0.0 1017246
03:00+3сз4595100 0.3 1017458
06:00+3вюв0184100 0.0 1017234
09:00+3ссз1186100 0.1 1017367
12:00+4св1194100 0.8 1016393
15:00+4сз2494100 2.1 1015521
18:00+3ссз3596100 2.7 1014351
21:00+3зюз239393 5.4 1014190
27 апреля, вт
вт2700:00+1юз359436 0.0 1014105
03:00+1юз37930 0.0 1013139
06:00+1юз379265 0.0 1013159
09:00+6юз796922 0.3 10131153
12:00+7з9115666 0.4 10131813
15:00+9з7104688 0.7 10132069
18:00+8зюз585194 0.3 10131124
21:00+4зсз1269100 0.4 101312